Voltar ao catálogo

CZ-4B R/B

AtivoPO
NORAD 37782·ROCKET BODY·🇨🇳 China

Lançado Aug 15, 2011 de Taiyuan Satellite Launch Center

Loading…

Próximas Passagens (próximas 24 horas)

TLE

AtualizadoSource: Space-Track

Época: Sep 14, 2026, 10:15 UTC

1 37782U 11043B   26257.42742486  .00000105  00000-0  43924-4 0  9997
2 37782  99.3951 153.6677 0187527 237.9576 120.3274 14.39379225791369

Acompanhe CZ-4B R/B em tempo real com AllMySat

Download on the App Store